Location: Zagreb
(45.8000°N, 16.0000°E)
Time: 23:13:33
(UTC+02:00)

Tiangong - Visible Passes

Search period start: 09 August 2022 00:00
Search period end: 19 August 2022 00:00
Orbit: 379 x 387 km, 41.5° (Epoch: 09 August)

Date Brightness Start Highest point End Pass type
(mag) Time Alt. Az. Time Alt. Az. Time Alt. Az.
09 Aug -0.7 04:43:05 17° SW 04:44:14 21° SSW 04:46:43 10° SSE visible
10 Aug 0.3 03:46:24 14° SE 03:46:24 14° SE 03:46:58 10° SE visible
11 Aug 0.4 04:22:15 10° SSE 04:22:15 10° SSE 04:22:20 10° SSE visible
15 Aug 0.0 21:41:07 10° SSW 21:41:56 14° SSW 21:41:56 14° SSW visible
16 Aug -0.1 20:41:41 10° S 20:43:23 14° SSE 20:45:01 10° ESE visible
16 Aug 0.5 22:16:48 10° SW 22:17:13 13° SW 22:17:13 13° SW visible
17 Aug -1.0 21:16:47 10° SW 21:19:28 26° SSE 21:20:03 24° SE visible
18 Aug -1.0 21:52:44 10° WSW 21:54:52 30° SSW 21:54:52 30° SSW visible
